map of LFSI home
Great Circle Mapper logo
LFSI - Airport
Location
City:  St-Dizier, Champagne-Ardenne, France
Name:St-Dizier-Robinson AB
ICAO:LFSI

Details
Type:Airport (Aerodrome, Airfield)
Use:Military
Latitude:4838'01"N (48.633536)
Longitude:454'29"E (4.908189)
Elevation:458 ft (140 m)
Variation:1.15E (WMM2015 magnetic declination)
0.13 annual change
Runways:1
Longest:7920 × 148 ft (2414 × 45 m)

Time
Time Zone:UTC+1 (DST+2)
Local Time:

Weather
METAR:LFSI 270400Z AUTO 10003KT 060V220 CAVOK 15/15 Q1013
TAF:LFSI 262000Z 2621/2721 09005KT 9999 BKN050TCU
TEMPO 2621/2707 4000 SHRA
TEMPO 2621/2703 4000 TSRA BKN050CB
BECMG 2706/2708 BKN025 PROB40
TEMPO 2712/2718 4000 -SHRA BKN030TCU

Related Locations
Nearby:
Farthest:CHT: 12091 mi / 19458 km
Waitangi [Tuuta], Chatham Islands, NZ

Find:

   beyond  
but within

Other Information
Maps:
NOTAMs:
Links:
Sources:

  
flag of France
flag of Champagne-Ardenne
  

Sectional Chart

Flight Planning
at skyvector.com

Satellite Image

Google Maps Satellite view

 

Copyright © 2004-2016 Karl L. Swartz. All rights reserved.
The Great Circle Mapper name and logo are trademarks of the Great Circle Mapper.
All other trademarks mentioned herein belong to their respective owners.
Please see credits for attibutions and further copyright information.

  Follow gcmap on Facebook Follow gcmap on Twitter Follow gcmap on Google+ GCmap on LinkedIn

hCard Microformat

Geo Microformat